Miscellaneous Local Product
Issued by NWS Hastings, NE

Home | Current Version | Previous Version | Graphics & Text | Print | Product List | Glossary On
Versions: 1 2 3 4 5 6 7 8 9 10 11 12 13 14 15 16 17 18 19 20 21 22 23 24 25 26 27 28 29 30 31 32 33 34 35 36 37 38 39 40 41 42 43 44 45 46 47 48 49 50
000
AXUS43 KGID 310002
MISGRI

GID CWA HOURLY WEATHER ROUNDUP
NATIONAL WEATHER SERVICE HASTINGS NE
700 PM CDT THU OCT 30 2014

NOTE: "FAIR" INDICATES FEW OR NO CLOUDS BELOW 12,000 FEET WITH NO
SIGNIFICANT WEATHER AND/OR OBSTRUCTIONS TO VISIBILITY.

...SOUTH CENTRAL NEBRASKA...

CITY           SKY/WX    TMP DP  RH WIND       PRES   REMARKS
GRAND ISLAND   CLEAR     51  35  54 N16       30.28R
HASTINGS       CLEAR     53  34  48 N16G25    30.25R
KEARNEY        CLEAR     52  32  46 NW18      30.29R
ORD            CLEAR     46  34  62 N16G23    30.32R
YORK           CLEAR     50  37  62 N14       30.25R
AURORA         CLEAR     52  33  49 N20G25    30.27R
LEXINGTON      CLEAR     53  33  47 N7        30.31R
HOLDREGE       CLEAR     54  32  43 N17       30.27R
HEBRON         CLEAR     56  34  42 N14       30.21R

...NEBRASKA PANHANDLE...

CITY           SKY/WX    TMP DP  RH WIND       PRES   REMARKS
CHADRON        CLEAR     48  33  56 NE10      30.37R
ALLIANCE       CLEAR     48  33  56 NE10      30.34R
SCOTTSBLUFF    CLEAR     51  31  46 NE9       30.33R
SIDNEY         CLEAR     50  30  46 N3        30.35R

...WESTERN AND NORTH CENTRAL NEBRASKA...

CITY           SKY/WX    TMP DP  RH WIND       PRES   REMARKS
VALENTINE      CLEAR     43  31  62 N12       30.39R
AINSWORTH      CLEAR     41  32  69 N10       30.38R
ONEILL         CLOUDY    43  36  76 N14G22    30.37R
BROKEN BOW     CLEAR     49  33  54 N17       30.32R
IMPERIAL       CLEAR     55  28  35 NE10      30.32R
NORTH PLATTE   CLEAR     52  31  44 N10       30.33R
MCCOOK         CLEAR     56  30  37 N12       30.30R

...EASTERN NEBRASKA...

CITY           SKY/WX    TMP DP  RH WIND       PRES   REMARKS
NORFOLK        CLOUDY    45  38  76 N18G25    30.30R
SO SIOUX CITY  CLOUDY    50  41  71 N21G30    30.25R
TEKAMAH        CLEAR     50  39  66 NW17G28   30.23R
ALBION         CLOUDY    46  35  66 N18G24    30.31R
OMAHA EPPLEY   PTCLDY    53  40  61 NW20G26   30.19R
MILLARD        CLEAR     54  39  58 NW16G28   30.19R
LINCOLN        CLEAR     54  37  52 N25       30.23R
NEBRASKA CITY  CLEAR     54  34  47 N14G24    30.16R
BEATRICE       CLEAR     53  38  55 N14       30.19R
FALLS CITY     CLEAR     57  39  51 NW13      30.13R

...NORTHERN KANSAS...

CITY           SKY/WX    TMP DP  RH WIND       PRES   REMARKS
GOODLAND       CLEAR     52  27  38 N8        30.33R
HILL CITY      CLEAR     58  31  35 N10       30.27R
NORTON         CLEAR     55  25  30 N9        30.27R
PHILLIPSBURG   CLEAR     63  32  31 N13       30.26R HAZE
SMITH CENTER   CLEAR     55  32  41 N10       30.25R
BELOIT         CLEAR     57  34  41 N12       30.21R
HAYS           CLEAR     59  30  33 N9        30.24R
RUSSELL        CLEAR     57  33  40 N10       30.22R
CONCORDIA      CLEAR     58  36  43 N13       30.20R
SALINA         CLEAR     62  34  35 N14       30.19R
TOPEKA         CLEAR     59  40  49 NW8       30.12R



USA.gov is the U.S. government's official web portal to all federal, state and local government web resources and services.